Location: Gesvres
(49.0440°N, 2.8518°E)
Time: 22:35:32
(UTC+00:00)

BlueWalker 3 - Visible Passes

Search period start: 10 June 2023 00:00
Search period end: 20 June 2023 00:00
Orbit: 493 x 513 km, 53.2° (Epoch: 09 June)

Date Brightness Start Highest point End Pass type
(mag) Time Alt. Az. Time Alt. Az. Time Alt. Az.
10 Jun 2.4 20:39:11 10° WNW 20:43:00 60° NNE 20:46:50 10° E visible
10 Jun 2.5 22:17:48 10° WNW 22:21:27 41° SW 22:22:42 31° S visible
11 Jun 2.6 21:57:20 10° WNW 22:00:59 40° SW 22:02:39 25° SSE visible
12 Jun 2.6 21:36:52 10° WNW 21:40:29 39° SW 21:42:39 20° SSE visible
13 Jun 2.7 21:16:23 10° WNW 21:19:59 38° SW 21:22:42 16° SSE visible
14 Jun 2.8 20:55:54 10° WNW 20:59:29 37° SW 21:02:47 12° SSE visible
15 Jun 2.9 20:35:22 10° WNW 20:38:56 37° SW 20:42:31 10° SSE visible
